Home   Weather   Escuintla   Past weeks

Flag for Guatemala Past Weather in Escuintla, Guatemala — Yesterday and Last 2 Weeks

Now
75 °F

Passing clouds.


Feels Like: 77 °F
Forecast: 69 / 93 °F
Wind: 9 mph from South

Location: Guatemala Aeropuertola Aurora

Current Time: Apr 27, 2017 at 10:45:27 am

Latest Report: Apr 27, 2017 at 10:00 am


Visibility: 4 mi

Pressure: 30.21 "Hg

Humidity: 61%

Dew Point: 61 °F

Location of EscuintlaLocation

Past Weather in Escuintla — Graph

°F

Escuintla Temperature Yesterday

Maximum temperature yesterday: 77 °F (at 12:00 pm)
Minimum temperature yesterday: 64 °F (at 1:00 am)
Average temperature yesterday: 70 °F

High & Low Weather Summary for the Past Weeks

 TemperatureHumidityPressure
High82 °F (Apr 16, 1:00 pm)94% (Apr 14, 6:00 am)30.33 "Hg (Apr 14, 6:00 am)
Low57 °F (Apr 13, 3:00 am)34% (Apr 12, 4:00 pm)29.92 "Hg (Apr 17, 1:00 pm)
Average69 °F70%30.23 "Hg
* Reported Apr 12 9:00 am — Apr 27 9:00 am, Escuintla, Weather by CustomWeather, © 2017

Note: Actual official high and low records may vary slightly from our data, if they occured in-between our weather recording intervals... More about our weather records

Advertising

Escuintla Weather History for the Previous 24 Hours

Scroll right to see more
 ConditionsComfort  
Time TempWeatherWind HumidityBarometerVisibility
9:00 am
Thu, Apr 27
72 °FSunny.12 mph69%30.21 "Hg4 mi
8:00 am68 °FSunny.9 mph73%30.21 "Hg4 mi
7:00 am66 °FSunny.7 mph83%30.21 "Hg4 mi
6:00 am64 °FScattered clouds.9 mph88%30.18 "Hg4 mi
5:00 am64 °FPassing clouds.7 mph94%30.18 "Hg4 mi
4:00 am64 °FPassing clouds.7 mph94%30.18 "Hg4 mi
3:00 am66 °FPassing clouds.7 mph88%30.18 "Hg4 mi
2:00 am66 °FPassing clouds.7 mph83%30.18 "Hg4 mi
1:00 am66 °FPassing clouds.5 mph88%30.21 "Hg4 mi
12:00 am66 °FPassing clouds.7 mph88%30.21 "Hg4 mi
11:00 pm
Wed, Apr 26
68 °FPassing clouds.7 mph83%30.24 "Hg4 mi
10:00 pm68 °FPassing clouds.9 mph83%30.24 "Hg4 mi
9:00 pm68 °FPassing clouds.9 mph83%30.21 "Hg4 mi
8:00 pm68 °FPassing clouds.9 mph88%30.18 "Hg4 mi
7:00 pm70 °FPassing clouds.9 mph83%30.18 "Hg4 mi
6:00 pm72 °FPassing clouds.12 mph73%30.12 "Hg4 mi
5:00 pm73 °FPassing clouds.16 mph65%30.12 "Hg4 mi
4:00 pm75 °FPassing clouds.18 mph61%30.12 "Hg4 mi
3:00 pm77 °FPassing clouds.18 mph57%30.12 "Hg4 mi
2:00 pm77 °FPassing clouds.21 mph57%30.15 "Hg4 mi
1:00 pm77 °FPassing clouds.21 mph54%30.15 "Hg4 mi
12:00 pm77 °FPassing clouds.21 mph54%30.18 "Hg5 mi
11:00 am75 °FPassing clouds.21 mph54%30.18 "Hg5 mi
10:00 am75 °FPassing clouds.21 mph54%30.21 "Hg5 mi
Weather by CustomWeather, © 2017

See weather overviewHow to use our weather pages